Regional Weather Roundup
Issued by NWS

Home | Current Version | Previous Version | Graphics & Text | Print | Product List | Glossary Off
Versions: 1 2 3 4 5 6 7 8 9 10 11 12 13 14 15 16 17 18 19 20 21 22 23 24 25 26 27 28 29 30 31 32 33 34 35 36 37 38 39 40 41 42 43 44 45 46 47 48 49 50

000
ASUS43 KDMX 042207
RWRIA

WEATHER ROUNDUP FOR IOWA
NATIONAL WEATHER SERVICE DES MOINES IA
400 PM CST WED MAR 04 2015

NOTE: "FAIR" INDICATES FEW OR NO CLOUDS BELOW 12,000 FEET WITH NO
SIGNIFICANT WEATHER AND/OR OBSTRUCTIONS TO VISIBILITY.

* - THESE STATIONS ARE NOT NWS STATIONS...THUS NOT UNDER NWS
QUALITY CONTROL.  THEY ALSO DO NOT REPORT WEATHER SUCH
AS PRECIPITATION OR FOG.

IAZ001>003-012>014-020>022-031>034-043>046-042300-
   NORTHWEST IOWA

CITY           SKY/WX    TMP DP  RH WIND       PRES   REMARKS
CARROLL *      SUNNY     19   0  42 NW24G31   30.27R WCI   2
CHEROKEE *     MOSUNNY   16   0  48 NW18G24   30.30R WCI  -1
DENISON *      SUNNY     21   0  39 NW23G30   30.27R WCI   5
LE MARS *      MOSUNNY   18  -2  41 NW21G28   30.33R WCI   1
ORANGE CITY *  SUNNY     16  -4  41 N18G28    30.30R WCI  -1
SHELDON *      FLURRIES  12   0  57 NW23      30.28R WCI  -7
STORM LAKE *   MOSUNNY   16   3  57 NW23      30.27R WCI  -2
$$

IAZ055>058-069>071-079>083-090>094-042300-
   SOUTHWEST IOWA

CITY           SKY/WX    TMP DP  RH WIND       PRES   REMARKS
ATLANTIC *     SUNNY     25   0  33 NW21      30.28R WCI  10
AUDUBON *      SUNNY     23   0  36 NW15G25   30.27R WCI  10
CLARINDA *     SUNNY     30   1  29 NW17G24   30.28S WCI  18
COUNCIL BLFS * SUNNY     27  -2  28 NW13G33   30.27R WCI  16
CRESTON *      SUNNY     27  -2  28 NW22G30   30.25R WCI  12
HARLAN  *      SUNNY     25   1  36 NW18G28   30.31R WCI  11
RED OAK *      SUNNY     28   0  29 NW14G25   30.30R WCI  17
SHENANDOAH *   SUNNY     30   0  27 N16G24    30.29R WCI  19
$$

IAZ047>049-059>061-072>074-084-042300-
   CENTRAL IOWA

CITY           SKY/WX    TMP DP  RH WIND       PRES   REMARKS
ANKENY *       PTSUNNY   27   9  46 NW18G25   30.24S WCI  13
CHARITON *     MOSUNNY   27   7  43 W12G17    30.24S WCI  16
GRINNELL*      MOSUNNY   23  10  58 W12       30.23F WCI  12
KNOXVILLE *    MOSUNNY   25   7  46 NW9G16    30.22F WCI  15
PELLA *        MOSUNNY   27  12  54 NW8       30.25F WCI  18
PERRY *          N/A     23   7  50 NW17G25   30.27R WCI   9
$$

IAZ004>006-015-016-023>025-035-036-042300-
   NORTH CENTRAL IOWA

CITY           SKY/WX    TMP DP  RH WIND       PRES   REMARKS
ALGONA *       PTSUNNY   14 N/A N/A N16G24    30.27R WCI  -2
CLARION *      PTSUNNY   18   9  68 N16       30.25R WCI   3
FOREST CITY *  PTSUNNY   14   1  57 NW16G22   30.25R WCI  -2
IOWA FALLS *   PTSUNNY   18   9  68 N7        30.24S WCI   8
$$

IAZ007>011-017>019-026>030-037>042-050>054-066-042300-
   NORTHEAST IOWA

CITY           SKY/WX    TMP DP  RH WIND       PRES   REMARKS
CHARLES CITY * PTSUNNY   14   1  57 NW10      30.25R WCI   1
DECORAH *      PTSUNNY   12  -2  52 W12G20    30.22R WCI  -2
MONTICELLO *   SUNNY     14   1  57 NW14      30.26S WCI  -1
OELWEIN *      PTSUNNY   12   1  62 NW12      30.25F WCI  -2
$$

IAZ064-065-067-068-078-042300-
   EAST CENTRAL IOWA

CITY           SKY/WX    TMP DP  RH WIND       PRES   REMARKS
MT. PLEASANT * MOSUNNY   21   3  45 NW12      30.28S WCI   9
MUSCATINE *    SUNNY     21   3  45 NW13      30.29S WCI   9
$$

IAZ062-063-075>077-085>089-095>099-042300-
   SOUTHEAST IOWA

CITY           SKY/WX    TMP DP  RH WIND       PRES   REMARKS
FAIRFIELD *    SUNNY     23   5  46 N7G15     30.27F WCI  15
FORT MADISON * SUNNY     21   5  49 N12       30.27F WCI   9
KEOKUK *       SUNNY     21   3  45 N10       30.27F WCI  10
OSKALOOSA *      N/A     25   9  50 NW10G18   30.25F WCI  15
CENTERVILLE *  SUNNY     25   5  42 NW9G16    30.27R WCI  15
WASHINGTON *   SUNNY     21   9  58 NW12      30.28R WCI   9
$$

ABBREVIATIONS USED IN REMARKS
   TC - TEMPERATURES IN CELSIUS
  WCI - WIND CHILL INDEX
   HX - HEAT INDEX
  VSB - VISIBILITY
$$




USA.gov is the U.S. government's official web portal to all federal, state and local government web resources and services.